FW9868 Weather Reports


time (UTC)temp
C
wind
direction
speed
KPH
gust
KPH
rain 1hr
cm
rain 24hr
cm
rain mn
cm
humidity
%
barometer
mb
20260906134617 26 17 0.0 0.0 0.00 0.03 0.03 91 1016.2
20260906133114 25 24 0.0 0.0 0.00 0.03 0.03 91 1016.4
20260906131612 25 22 0.0 0.0 0.00 0.03 0.03 92 1016.2
20260906130109 25 18 0.0 0.0 0.00 0.03 0.03 91 1016.1
20260906124607 25 25 0.0 0.0 0.00 0.03 0.03 92 1016.3
20260906123103 25 15 0.0 0.0 0.00 0.03 0.03 91 1016.3
20260906121559 25 16 0.0 0.0 0.00 0.03 0.03 91 1016.1
20260906120054 25 15 0.0 0.0 0.00 0.03 0.03 91 1016.2
20260906114549 25 19 0.0 0.0 0.00 0.03 0.03 91 1016.3
20260906113045 25 12 0.0 0.0 0.00 0.03 0.03 91 1016.2
20260906111541 25 12 0.0 0.0 0.00 0.03 0.03 91 1016.2
20260906110042 25 17 0.0 0.0 0.00 0.03 0.03 91 1016.3
20260906104537 25 15 0.0 0.0 0.00 0.03 0.03 91 1016.6
20260906103037 25 19 0.0 0.0 0.00 0.03 0.03 91 1016.3
20260906101532 25 13 0.0 0.0 0.00 0.03 0.03 91 1015.8
20260906100029 25 12 0.0 0.0 0.00 0.03 0.03 91 1015.8
20260906094524 25 20 0.0 0.0 0.00 0.03 0.03 92 1016.0
20260906093022 25 16 0.0 0.0 0.00 0.03 0.03 91 1015.4
20260906091519 25 21 0.0 0.0 0.00 0.03 0.03 91 1015.3
20260906090016 25 20 0.0 0.0 0.00 0.03 0.03 91 1015.6
20260906084515 25 23 0.0 0.0 0.00 0.03 0.03 91 1015.9
20260906083015 25 16 0.0 0.0 0.00 0.03 0.03 91 1016.0
20260906081513 25 14 0.0 0.0 0.00 0.03 0.03 91 1015.7
20260906080013 25 17 0.0 0.0 0.00 0.03 0.03 91 1015.5
20260906074508 25 15 0.0 0.0 0.00 0.03 0.03 91 1015.5
20260906073004 25 19 0.0 0.0 0.00 0.03 0.03 91 1015.8
20260906071503 25 22 0.0 0.0 0.00 0.03 0.03 90 1015.5
20260906070001 25 21 0.0 0.0 0.13 0.03 0.03 91 1015.2
20260906064459 25 21 0.0 0.0 0.00 0.00 0.00 90 1015.4
20260906062955 25 22 0.0 0.0 0.00 0.00 0.00 90 1015.3
20260906061453 25 22 0.0 0.0 0.00 0.00 0.00 90 1015.8
20260906055952 25 40 0.0 0.0 0.00 0.00 0.00 90 1016.0
20260906054448 26 23 0.0 0.0 0.00 0.00 0.00 90 1015.8
20260906052947 25 5 0.0 0.0 0.00 0.00 0.00 89 1016.5
20260906051447 25 12 0.0 0.0 0.00 0.00 0.00 89 1016.2
20260906045947 26 14 0.0 0.0 0.00 0.00 0.00 88 1016.4
20260906044443 26 14 0.0 0.0 0.00 0.00 0.00 88 1016.0
20260906042942 26 13 0.0 0.0 0.00 0.00 0.00 88 1016.2
20260906041438 26 13 0.0 0.0 0.00 0.00 0.00 88 1016.5
20260906035933 26 20 0.0 0.0 0.00 0.00 0.00 88 1016.4
20260906034430 26 351 0.0 0.0 0.00 0.00 0.00 88 1016.3
20260906032928 26 10 0.0 0.0 0.00 0.00 0.00 88 1016.4
20260906031425 26 8 0.0 0.0 0.00 0.00 0.00 87 1016.5
20260906025921 26 351 0.0 0.0 0.00 0.00 0.00 86 1016.4
20260906024420 27 354 0.0 0.0 0.00 0.00 0.00 86 1016.4
20260906022917 27 0 0.0 0.0 0.00 0.00 0.00 85 1016.3
20260906021414 27 359 0.0 0.0 0.00 0.00 0.00 85 1016.0
20260906015914 27 6 0.0 0.0 0.00 0.00 0.00 85 1015.8
20260906014414 28 6 0.0 0.0 0.00 0.00 0.00 84 1015.7
20260906012913 28 356 0.0 0.0 0.00 0.00 0.00 83 1015.3
20260906011413 28 10 0.0 0.0 0.00 0.00 0.00 83 1015.1
20260906005912 28 34 0.0 0.0 0.00 0.00 0.00 81 1014.9
20260906004410 29 27 0.0 0.0 0.00 0.00 0.00 80 1014.6
20260906002908 30 350 0.0 0.0 0.00 0.00 0.00 78 1014.7
20260906001405 30 351 0.0 1.6 0.00 0.00 0.00 77 1014.8
20260905235900 31 349 1.6 1.6 0.00 0.00 0.00 77 1014.7
20260905234357 31 307 0.0 1.6 0.00 0.00 0.00 75 1014.5
20260905232852 32 354 1.6 4.8 0.00 0.00 0.00 73 1014.4
20260905231349 32 328 0.0 1.6 0.00 0.00 0.00 72 1014.5
20260905225849 32 91 1.6 1.6 0.00 0.00 0.00 70 1014.6
20260905224347 32 329 1.6 4.8 0.00 0.00 0.00 69 1014.2
20260905222845 33 322 0.0 1.6 0.00 0.00 0.00 67 1014.4
20260905221343 33 243 1.6 4.8 0.00 0.00 0.00 66 1014.6
20260905215840 33 269 0.0 4.8 0.00 0.00 0.00 66 1014.3
20260905214338 33 317 1.6 4.8 0.00 0.00 0.00 65 1014.4
20260905212835 34 69 1.6 4.8 0.00 0.00 0.00 65 1014.6
20260905211331 34 347 0.0 8.0 0.00 0.00 0.00 65 1014.8
20260905205826 34 150 6.4 8.0 0.00 0.00 0.00 65 1015.1
20260905204322 35 221 8.0 9.7 0.00 0.00 0.00 63 1015.0
20260905202818 35 223 3.2 9.7 0.00 0.00 0.00 64 1015.3
20260905201316 35 285 1.6 6.4 0.00 0.00 0.00 62 1015.4
20260905195815 36 224 4.8 6.4 0.00 0.00 0.00 63 1015.4
20260905194312 36 221 4.8 6.4 0.00 0.00 0.00 61 1015.3
20260905192808 35 127 0.0 1.6 0.00 0.00 0.00 62 1015.2
20260905191308 37 186 0.0 4.8 0.00 0.00 0.00 59 1015.6
20260905185805 35 173 0.0 1.6 0.00 0.00 0.00 61 1016.1
20260905184305 36 245 3.2 4.8 0.00 0.00 0.00 61 1016.1
20260905182805 34 167 1.6 4.8 0.00 0.00 0.00 65 1016.3
20260905181300 31 43 0.0 1.6 0.00 0.00 0.00 73 1017.0
20260905175755 33 35 0.0 6.4 0.00 0.00 0.00 70 1017.1
20260905174253 33 216 3.2 6.4 0.00 0.00 0.00 69 1017.3
20260905172750 33 109 3.2 6.4 0.00 0.00 0.00 69 1017.2
20260905171247 32 64 0.0 1.6 0.00 0.00 0.00 71 1017.3
20260905165743 32 170 3.2 6.4 0.00 0.00 0.00 71 1017.4
20260905164240 35 234 1.6 6.4 0.00 0.00 0.00 57 1017.4
20260905162739 35 71 1.6 4.8 0.00 0.00 0.00 58 1017.5
20260905161238 35 324 0.0 1.6 0.00 0.00 0.00 59 1017.6
20260905155738 33 179 3.2 4.8 0.00 0.00 0.00 65 1017.5
20260905154233 32 326 0.0 4.8 0.00 0.00 0.00 71 1017.4
20260905152730 30 134 1.6 4.8 0.00 0.00 0.00 76 1017.3
20260905151226 30 42 0.0 0.0 0.00 0.00 0.00 80 1017.3
20260905145723 30 317 0.0 0.0 0.00 0.00 0.00 82 1017.5
20260905144223 28 353 0.0 0.0 0.00 0.00 0.00 85 1017.7
20260905142721 28 9 0.0 0.0 0.00 0.00 0.00 86 1017.7
20260905141219 27 6 0.0 0.0 0.00 0.00 0.00 86 1017.9
20260905135714 27 30 0.0 0.0 0.00 0.00 0.00 87 1017.8